Location: Coopersdale
(40.3556°N, 78.9372°W)
Time: 10:04:21
(UTC+00:00)

A-11 Canister half - Visible Passes

Search period start: 24 January 2021 00:00
Search period end: 03 February 2021 00:00
Orbit: 1517 x 1683 km, 47.2° (Epoch: 23 January)

Date Brightness Start Highest point End Pass type
(mag) Time Alt. Az. Time Alt. Az. Time Alt. Az.
24 Jan 8.8 01:15:01 10° SW 01:24:14 69° SSE 01:24:14 69° SSE visible
24 Jan 10.8 03:20:17 10° W 03:22:28 19° W 03:22:28 19° W visible
24 Jan 11.1 07:50:02 11° SE 07:50:02 11° SE 07:50:11 10° SE visible
24 Jan 10.3 09:48:17 19° SSW 09:48:17 19° SSW 09:51:43 10° S visible
24 Jan 10.3 22:51:39 10° SSE 22:57:56 20° SE 23:04:05 10° E visible
25 Jan 8.8 00:52:09 10° SW 01:01:34 66° SE 01:02:59 59° ESE visible
25 Jan 10.3 02:57:17 10° W 03:01:13 28° W 03:01:13 28° W visible
25 Jan 10.6 09:27:12 16° S 09:27:12 16° S 09:29:10 10° S visible
26 Jan 9.0 00:29:18 10° SW 00:38:41 63° SE 00:41:42 44° E visible
26 Jan 9.9 02:34:18 10° W 02:39:55 40° W 02:39:55 40° W visible
26 Jan 10.9 09:06:07 11° S 09:06:07 11° S 09:06:35 10° S visible
27 Jan 9.1 00:06:27 10° SW 00:15:48 60° SE 00:20:23 32° ENE visible
27 Jan 9.4 02:11:18 10° W 02:18:36 54° WNW 02:18:36 54° WNW visible
27 Jan 9.2 23:43:38 10° SW 23:52:56 56° SE 23:59:00 23° ENE visible
28 Jan 9.0 01:48:19 10° WSW 01:57:14 68° NW 01:57:14 68° NW visible
28 Jan 11.1 03:54:31 10° WNW 03:55:26 13° WNW 03:55:26 13° WNW visible
28 Jan 9.3 23:20:48 10° SSW 23:30:04 53° SE 23:37:35 16° ENE visible
29 Jan 8.9 01:25:20 10° WSW 01:34:51 71° NNW 01:35:48 67° NNE visible
29 Jan 10.7 03:31:32 10° WNW 03:34:01 20° WNW 03:34:01 20° WNW visible
29 Jan 9.4 22:57:59 10° SSW 23:07:12 51° SE 23:16:07 10° ENE visible
30 Jan 9.0 01:02:20 10° WSW 01:11:54 74° NNW 01:14:21 54° NE visible
30 Jan 10.4 03:08:34 10° WNW 03:12:33 28° WNW 03:12:33 28° WNW visible
31 Jan 9.0 00:39:21 10° WSW 00:48:58 76° NNW 00:52:51 41° NE visible
31 Jan 10.0 02:45:34 10° WNW 02:51:04 37° WNW 02:51:04 37° WNW visible
01 Feb 9.0 00:16:22 10° WSW 00:26:01 78° NNW 00:31:19 30° ENE visible
01 Feb 9.6 02:22:34 10° WNW 02:29:33 47° NW 02:29:33 47° NW visible
01 Feb 9.0 23:53:24 10° WSW 00:03:06 81° NNW 00:09:47 22° ENE visible
02 Feb 9.3 01:59:34 10° W 02:07:59 55° NNW 02:07:59 55° NNW visible
02 Feb 11.1 04:05:18 10° WNW 04:06:11 13° WNW 04:06:11 13° WNW visible
02 Feb 9.1 23:30:26 10° WSW 23:40:10 84° NNW 23:48:13 16° ENE visible
